Back to catalog

BREEZE-M DEB

LostHEO
NORAD 38596·DEBRIS·🇷🇺 Russia

Launched Mar 14, 2008 from Baikonur Cosmodrome

Loading…

Next Passes (next 24 hours)

TLE

StaleSource: Space-Track

Epoch: Sep 8, 2012, 15:14 UTC

1 38596U 08011AT  12252.63481954  .00000459  00000-0  19050-1 0  9997
2 38596 049.1903 318.8068 6366257 134.6615 299.4296 03.06293807 16156

Track BREEZE-M DEB in real time with AllMySat

Download on the App Store